Location: Palomar Mountain Lodge
(33.3110°N, 116.8495°W)
Time: 14:17:18
(UTC-07:00)

SPOT 1/Viking Rocket - Pass Details

Date: 14 June 2018
Orbit: 777 x 795 km, 98.6° (Epoch: 19 June)

Event Time Altitude Azimuth Distance (km) Brightness Sun altitude
Exits shadow 22:19:26 59° 133° (SE) 889 3.4 -23.3°
Maximum altitude 22:20:16 73° 76° (ENE) 814 3.4 -23.4°
Drops below altitude 10° 22:25:23 10° 352° (N) 2,328 6.8 -24.0°
Sets 22:27:42 0° 350° (N) 3,259 7.8 -24.3°
